AO-07 1 07530U 74089B 22111.45406840 -.00000034 00000-0 77043-4 0 9994 2 07530 101.9011 91.1528 0012365 149.5169 326.6091 12.53654249170329 UO-11 1 14781U 84021B 22111.46121621 .00000917 00000-0 11730-3 0 9998 2 14781 97.6155 101.5058 0009328 140.6518 219.5376 14.83561464 31596 LO-19 1 20442U 90005G 22111.47636735 .00000136 00000-0 66206-4 0 9998 2 20442 98.7887 75.4848 0011390 341.6782 18.3989 14.33043520684946 HUBBLE 1 20580U 90037B 22111.52724876 .00002668 00000-0 14787-3 0 9994 2 20580 28.4692 185.9363 0002879 137.3774 245.5783 15.10314286557609 MET-2/21 1 22782U 93055A 22111.39152536 .00000031 00000-0 14108-4 0 9996 2 22782 82.5502 59.5208 0022991 144.8301 333.0469 13.83850663446115 AO-27 1 22825U 93061C 22111.07617704 .00000062 00000-0 41949-4 0 9996 2 22825 98.8932 140.8841 0007880 212.5208 147.5489 14.30159331489952 IO-26 1 22826U 93061D 22111.04326398 .00000084 00000-0 50189-4 0 9990 2 22826 98.8876 140.7336 0008608 199.1366 160.9494 14.30503101490205 FO-29 1 24278U 96046B 22111.35005927 -.00000034 00000-0 -14873-5 0 9993 2 24278 98.5227 142.8763 0351310 71.5346 292.3638 13.53113293267883 NOAA-15 1 25338U 98030A 22111.52025465 .00000168 00000-0 88519-4 0 9997 2 25338 98.6502 141.7848 0011587 103.0474 257.2000 14.26111350244906 GO-32 1 25397U 98043D 22111.57498534 .00000075 00000-0 52646-4 0 9991 2 25397 98.8127 61.9090 0000212 301.5091 58.6067 14.23744883235334 ISS 1 25544U 98067A 22111.52540476 .00008917 00000-0 16303-3 0 9991 2 25544 51.6419 257.2124 0005149 42.3719 73.4655 15.50173823336395 NO-44 1 26931U 01043C 22111.54783993 .00000130 00000-0 81309-4 0 9993 2 26931 67.0517 205.2771 0007888 271.5811 88.4387 14.30685753 73267 SO-50 1 27607U 02058C 22111.41107956 .00000923 00000-0 14817-3 0 9995 2 27607 64.5531 116.4456 0075022 305.7071 53.7066 14.76018283 39957 CO-55 1 27844U 03031E 22111.44976920 .00000250 00000-0 13173-3 0 9995 2 27844 98.6810 119.9933 0008624 266.8968 93.1223 14.22417718975760 CO-57 1 27848U 03031J 22111.25436109 .00000215 00000-0 11735-3 0 9991 2 27848 98.6857 120.3315 0008550 283.4905 76.5319 14.21979216975552 RS-22 1 27939U 03042A 22111.45709281 .00000922 00000-0 17215-3 0 9994 2 27939 98.1827 252.2232 0013367 34.0611 326.1463 14.67255278992686 NOAA-18 1 28654U 05018A 22111.47598700 .00000204 00000-0 13396-3 0 9997 2 28654 98.9523 181.9501 0015229 130.5421 229.7079 14.12715838871937 CO-58 1 28895U 05043F 22111.32371051 .00001039 00000-0 20602-3 0 9999 2 28895 98.0970 243.6161 0015757 324.6344 35.3812 14.64217821879058 Falconsat-3 1 30776U 07006E 22110.85925983 .00034457 00000-0 61298-3 0 9993 2 30776 35.4319 276.4267 0000785 324.0471 36.0206 15.49150726840633 CO-65 1 32785U 08021C 22111.39519354 .00002753 00000-0 29538-3 0 9999 2 32785 97.6531 84.0785 0014345 66.4473 293.8250 14.89327963757995 AAUSAT2 1 32788U 08021F 22111.49671448 .00005466 00000-0 48042-3 0 9991 2 32788 97.5314 98.8597 0009834 321.5977 38.4544 14.96909988759915 DO-64 1 32789U 08021G 22111.07915007 .00012233 00000-0 71013-3 0 9992 2 32789 97.3450 139.4987 0012131 154.6106 205.5723 15.12208352763257 CO-66 1 32791U 08021J 22111.38922410 .00003365 00000-0 33435-3 0 9997 2 32791 97.6081 89.6319 0013606 27.6899 332.5042 14.92288678758686 RS-30 1 32953U 08025A 22111.39703419 .00000021 00000-0 80971-4 0 9992 2 32953 82.5052 219.4006 0019458 28.5749 331.6395 12.43108865631244 PRISM 1 33493U 09002B 22111.49270197 .00006702 00000-0 55480-3 0 9999 2 33493 98.2275 94.8405 0012902 357.4481 2.6672 14.99181609720441 NOAA-19 1 33591U 09005A 22111.54159648 .00000147 00000-0 10463-3 0 9993 2 33591 99.1544 144.4662 0013630 352.2109 7.8849 14.12551727680158 SRMSAT 1 37841U 11058D 22111.46455366 .00000406 00000-0 77949-4 0 9994 2 37841 19.9712 239.3928 0012001 77.6727 338.4930 14.10741556543185 HRBE 1 37855U 11061F 22111.18095115 .00011604 00000-0 52519-3 0 9991 2 37855 101.7035 200.0915 0158340 233.7215 124.9285 15.10660243572584 RS-40 1 38735U 12041C 22111.48983290 .00000039 00000-0 21332-3 0 9990 2 38735 82.4727 301.0202 0017911 133.8351 226.4212 12.42585562441445 ZACUBE-1 1 39417U 13066B 22111.45830018 .00001764 00000-0 22230-3 0 9996 2 39417 97.6323 85.5556 0056667 230.5270 129.0924 14.82106650454686 Delfi-N3xt 1 39428U 13066N 22111.51537437 .00003082 00000-0 48137-3 0 9993 2 39428 97.8115 48.3479 0119802 99.6851 261.7911 14.68782268450179 GOMX-1 1 39430U 13066Q 22111.50653075 .00001032 00000-0 19342-3 0 9991 2 39430 97.8123 21.9555 0148409 224.1046 134.8219 14.60032243447988 LO-74 1 39440U 13066AA 22111.54549972 .00002366 00000-0 32801-3 0 9992 2 39440 97.7212 71.5208 0077925 317.1044 42.4105 14.76805641451887 AO-73 1 39444U 13066AE 22111.44810852 .00002102 00000-0 25727-3 0 9990 2 39444 97.6204 87.9452 0055776 218.8521 140.8678 14.83133882453070 SPROUT 1 39770U 14029E 22111.38840750 .00005920 00000-0 61717-3 0 9995 2 39770 97.9332 228.0298 0007623 274.7055 85.3281 14.90140407429169 DTUSAT-2 1 40030U 14033W 22111.49024510 .00002948 00000-0 31393-3 0 9995 2 40030 97.9348 44.0509 0010263 237.5511 122.4714 14.89669439425165 EO-80 1 40032U 14033Y 22111.52846888 .00002282 00000-0 24460-3 0 9999 2 40032 97.9353 44.1017 0010212 238.6752 121.3466 14.89637848425140 HODOYOSHI-1 1 40299U 14070B 22111.51761293 .00004886 00000-0 19083-3 0 9997 2 40299 97.2471 181.3337 0011831 346.9936 126.9728 15.26279529414378 FIREBIRD FU3 1 40377U 15003B 22111.48547214 .00018586 00000-0 58861-3 0 9991 2 40377 99.1089 323.7757 0104952 217.4915 141.8968 15.27532467399711 FIREBIRD FU4 1 40378U 15003C 22111.12144335 .00017631 00000-0 55745-3 0 9998 2 40378 99.1092 323.5293 0104935 218.3979 140.9754 15.27600514399666 GRIFEX 1 40379U 15003D 22111.46970326 .00011426 00000-0 42041-3 0 9994 2 40379 99.1181 310.4657 0118299 257.8959 100.8997 15.21682283398951 XW-2A 1 40903U 15049E 22111.48218350 .00019354 00000-0 33524-3 0 9995 2 40903 97.1869 170.0138 0009244 337.9307 146.3288 15.50903241370427 XW-2C 1 40906U 15049H 22111.48672057 .00005300 00000-0 26062-3 0 9991 2 40906 97.4944 115.3818 0013584 189.2168 328.0688 15.18373993364277 XW-2D 1 40907U 15049J 22111.52176498 .00006141 00000-0 29678-3 0 9995 2 40907 97.4932 115.3533 0013073 184.0594 274.9027 15.18920788364320 LILACSAT-2 1 40908U 15049K 22111.51864344 .00003061 00000-0 16532-3 0 9992 2 40908 97.5164 112.6824 0014516 207.8659 268.6325 15.15394586363868 XW-2E 1 40909U 15049L 22111.51564956 .00009125 00000-0 39827-3 0 9998 2 40909 97.4673 119.7606 0012833 164.9440 346.5536 15.22291772364749 XW-2F 1 40910U 15049M 22111.48971919 .00009076 00000-0 40205-3 0 9994 2 40910 97.4754 118.8560 0013883 166.4907 345.7747 15.21775425364512 XW-2B 1 40911U 15049N 22111.48661556 .00005997 00000-0 29080-3 0 9994 2 40911 97.4920 115.9375 0012901 185.9386 325.7953 15.18816539364208 DCBB 1 40912U 15049P 22111.47560201 .00010400 00000-0 42222-3 0 9997 2 40912 97.4403 123.1982 0015032 136.5568 21.7438 15.24676958365064 TW-1A 1 40928U 15051D 22111.56290997 .00034145 00000-0 50837-3 0 9992 2 40928 97.0456 134.8828 0006802 219.2320 241.1663 15.55028679369385 IO-86 1 40931U 15052B 22111.31664061 .00000883 00000-0 33796-4 0 9995 2 40931 5.9983 216.6588 0012365 78.9825 281.1643 14.76774402354880 ATHENOXAT-1 1 41168U 15077C 22111.46185199 .00013950 00000-0 60498-3 0 9998 2 41168 14.9842 152.3843 0010800 164.7755 233.8876 15.19307672351625 ChubuSat-2 1 41338U 16012B 22111.15288917 .00002538 00000-0 18673-3 0 9993 2 41338 31.0043 28.6777 0013710 303.7620 56.1709 15.01119959338869 ChubuSat-3 1 41339U 16012C 22111.14906089 .00002030 00000-0 14766-3 0 9996 2 41339 31.0124 25.6610 0013643 312.3845 47.5634 15.01218851338865 Horyu-4 1 41340U 16012D 22111.39594118 .00004349 00000-0 30978-3 0 9999 2 41340 31.0061 3.4092 0013678 351.5030 8.5373 15.02881981339133 [email protected] 1 41459U 16025D 22111.41154822 .00015654 00000-0 69156-3 0 9992 2 41459 98.1804 272.4126 0150083 103.1008 258.7024 15.12167125328876 AAUSAT4 1 41460U 16025E 22111.40686138 .00021561 00000-0 86391-3 0 9997 2 41460 98.1770 278.1207 0131498 80.9394 280.6778 15.17348311329281 LO-87 1 41557U 16033B 22111.50329802 .00012394 00000-0 38946-3 0 9993 2 41557 97.3852 209.1806 0011130 214.4980 267.4337 15.33072181328655 NuSat2 1 41558U 16033C 22111.52643609 .00011694 00000-0 34501-3 0 9995 2 41558 97.4035 214.5886 0010623 203.3417 212.1877 15.35095172328918 Lapan A3 1 41603U 16040E 22111.52168975 .00001363 00000-0 65297-4 0 9991 2 41603 97.2128 151.0146 0013520 8.9970 128.6590 15.20484580323384 Pratham 1 41783U 16059A 22111.05787334 .00000435 00000-0 92702-4 0 9994 2 41783 97.9202 154.8935 0033234 357.7294 2.3753 14.63295099297232 TY-1 1 41844U 16066D 22111.51941734 .00012195 00000-0 43599-3 0 9992 2 41844 97.3930 123.8340 0015471 125.1009 354.8868 15.28843814302901 CAS-2T 1 41847U 16066G 22111.44761748 .00000852 00000-0 13728-3 0 9990 2 41847 98.5556 176.1640 0364530 20.5516 340.9912 14.38500555286155 EO-88 1 42017U 17008BX 22111.41007091 .00018801 00000-0 59878-3 0 9997 2 42017 97.2728 178.4178 0006706 96.9877 263.2128 15.32583461288338 CAS-4B 1 42759U 17034B 22111.61136686 .00003911 00000-0 24021-3 0 9992 2 42759 43.0184 285.9071 0009973 291.8121 107.5443 15.11408962267751 CAS-4A 1 42761U 17034D 22111.59881575 .00004051 00000-0 24772-3 0 9995 2 42761 43.0176 284.8046 0010212 292.8458 184.4354 15.11497658267752 NIUSat 1 42766U 17036B 22111.07818585 .00009017 00000-0 36070-3 0 9997 2 42766 97.2084 150.9729 0014884 163.7429 196.4290 15.25203230268052 Aalto 1 1 42775U 17036L 22111.35510948 .00007791 00000-0 31685-3 0 9994 2 42775 97.2043 151.2486 0013607 161.3363 198.8377 15.24709842268077 URSA MAIOR 1 42776U 17036M 22111.09267871 .00007830 00000-0 31415-3 0 9995 2 42776 97.2056 151.6707 0013370 161.0769 199.0969 15.25167742268063 Max Valier Sat 1 42778U 17036P 22111.42417033 .00009110 00000-0 35732-3 0 9990 2 42778 97.2122 154.5049 0012180 160.0291 200.1427 15.25894817268206 Pegasus 1 42784U 17036V 22111.34592033 .00012664 00000-0 47245-3 0 9992 2 42784 97.2057 155.1607 0011435 162.0566 198.1080 15.27478786268291 NUDATSat 1 42787U 17036Y 22111.55876345 .00018559 00000-0 61536-3 0 9997 2 42787 97.2097 159.0720 0010644 149.9184 210.2671 15.31256760268381 SUCHAI 1 1 42788U 17036Z 22111.07480370 .00014168 00000-0 50586-3 0 9999 2 42788 97.2063 156.3858 0010982 158.5315 201.6388 15.28903450268418 SKCUBE 1 42789U 17036AA 22111.11192500 .00012150 00000-0 44198-3 0 9991 2 42789 97.2063 155.9485 0010929 159.0885 201.0804 15.28328194268311 VZLUSAT 1 1 42790U 17036AB 22111.43146604 .00020396 00000-0 67784-3 0 9999 2 42790 97.2088 158.9260 0010289 151.5761 208.6044 15.31167289268514 VENTA 1 1 42791U 17036AC 22111.12596464 .00011962 00000-0 44049-3 0 9997 2 42791 97.2062 155.8919 0010647 159.3958 200.7714 15.27930560268305 Robusta 1B 1 42792U 17036AD 22111.08523242 .00013077 00000-0 46915-3 0 9990 2 42792 97.2058 156.4452 0010553 158.9246 201.2432 15.28769216268358 D-SAT 1 42794U 17036AF 22111.49363329 .00002646 00000-0 22934-3 0 9990 2 42794 97.4535 119.9187 0122012 275.9361 82.7964 14.92355500262985 TechnoSat 1 42829U 17042E 22111.47169564 .00001415 00000-0 14561-3 0 9999 2 42829 97.4285 328.9178 0013590 191.9079 168.1822 14.91691180259592 QIKCOM-1 1 42983U 98067NF 22111.52778624 .00091880 00000-0 39225-3 0 9994 2 42983 51.6317 121.3061 0005699 52.4094 307.7426 15.84407423255872 AO-91 1 43017U 17073E 22111.42390942 .00006623 00000-0 50088-3 0 9994 2 43017 97.6806 7.9408 0250865 14.9273 345.9171 14.80899594238676 PICSAT 1 43132U 18004X 22111.48652660 .00017740 00000-0 61855-3 0 9997 2 43132 97.3738 188.2382 0008227 190.8115 169.2950 15.29660401237691 AO-92 1 43137U 18004AC 22111.47882194 .00012029 00000-0 44089-3 0 9993 2 43137 97.3706 187.1912 0007958 193.3596 166.7434 15.28115605237643 TianYi 2 1 43155U 18008A 22111.57101573 .00006961 00000-0 38083-3 0 9998 2 43155 97.3581 171.8142 0015729 348.1157 147.8775 15.14455679234667 Zhou Enlai 1 43156U 18008B 22111.50677823 .00007280 00000-0 40163-3 0 9995 2 43156 97.3627 171.6124 0013149 350.0903 122.4435 15.14174727234587 TianYi 6 1 43158U 18008D 22111.59007919 .00005736 00000-0 32518-3 0 9998 2 43158 97.3584 169.7838 0012688 349.9362 145.2904 15.13295492234502 S-Net D 1 43186U 18014G 22111.50944330 .00001600 00000-0 14152-3 0 9994 2 43186 97.6625 18.3371 0012008 122.8773 237.3606 14.97659516230390 S-Net B 1 43187U 18014H 22111.50951762 .00001594 00000-0 14099-3 0 9994 2 43187 97.6621 18.2913 0012002 122.8019 237.4361 14.97658080230399 S-Net A 1 43188U 18014J 22111.50976920 .00001595 00000-0 14111-3 0 9994 2 43188 97.6626 18.3516 0011991 122.8966 237.3411 14.97657512230396 S-Net C 1 43189U 18014K 22111.51039644 .00001545 00000-0 13678-3 0 9991 2 43189 97.6620 18.2817 0011964 122.8818 237.3557 14.97655172228949 FMN 1 1 43192U 18015A 22111.63789279 .00026741 00000-0 78672-3 0 9995 2 43192 97.5265 255.3757 0012215 228.9826 140.6472 15.34985966234725 Shaonian Xing 1 43199U 18015H 22111.60390688 .00016588 00000-0 53482-3 0 9991 2 43199 97.5046 251.0192 0013355 239.9979 249.0038 15.32158629234731 SurfSat 1 43614U 18070B 22111.55327803 .00040843 00000-0 71015-3 0 9990 2 43614 93.0284 74.6679 0008127 223.5738 136.4882 15.50634701202236 CP-7 DAVE 1 43615U 18070C 22111.39648600 .00036335 00000-0 64994-3 0 9993 2 43615 93.0289 74.4911 0008377 227.0048 133.0511 15.49843772202183 ELFIN-B 1 43616U 18070D 22111.39487617 .00071272 00000-0 93079-3 0 9998 2 43616 93.0200 75.3568 0007763 204.8961 155.1930 15.58400314202440 ELFIN-A 1 43617U 18070E 22111.39904444 .00075161 00000-0 93256-3 0 9999 2 43617 93.0276 76.5861 0007603 194.1672 165.9381 15.59749254202489 CubeBel-1 1 43666U 18083E 22111.49330332 .00008653 00000-0 38045-3 0 9994 2 43666 97.4259 140.8541 0014397 165.2697 332.9257 15.22038060192815 Changshagaoxin 1 43669U 18083H 22111.48264157 .00008108 00000-0 37288-3 0 9990 2 43669 97.4206 136.9937 0010572 160.5572 337.2358 15.20558768192647 Ten-Koh 1 43677U 18084G 22111.57078797 .00001802 00000-0 18813-3 0 9990 2 43677 97.9547 241.1422 0017195 98.7935 261.5231 14.90915739189208 PO-101 1 43678U 18084H 22111.64965472 .00000806 00000-0 85111-4 0 9993 2 43678 97.9603 244.2850 0011172 110.8067 249.4372 14.92045382189382 IRVINE 01 1 43693U 18088D 22111.12680773 .00034168 00000-0 10431-2 0 9994 2 43693 85.0322 349.5970 0011758 335.0575 25.0103 15.33689730191427 QO-100 1 43700U 18090A 22111.53622852 .00000138 00000-0 00000-0 0 9994 2 43700 0.0158 249.1831 0002803 176.7599 2.5011 1.00274011 12452 Reaktor Hello World 1 43743U 18096AA 22111.48934111 .00014976 00000-0 47997-3 0 9999 2 43743 97.3537 191.6576 0014400 260.3765 99.5851 15.32354124189230 MinXSS-2 1 43758U 18099A 22111.43984520 .00003177 00000-0 28061-3 0 9994 2 43758 97.6271 180.7367 0016366 96.8933 263.4151 14.96963823184571 AO-95 1 43770U 18099N 22111.41324092 .00003327 00000-0 30017-3 0 9999 2 43770 97.6250 179.2453 0016030 105.9742 254.3247 14.96100249184489 RANGE-B 1 43772U 18099Q 22111.49678671 .00003238 00000-0 28840-3 0 9996 2 43772 97.6351 180.8725 0015261 93.5891 266.7077 14.96633633184515 RANGE-A 1 43773U 18099R 22111.45521446 .00002278 00000-0 20889-3 0 9998 2 43773 97.6176 178.2542 0014863 94.8398 265.4521 14.95782354184471 MOVE-II 1 43780U 18099Y 22111.48477093 .00004852 00000-0 42372-3 0 9998 2 43780 97.6287 180.3072 0014944 102.0580 258.2317 14.97174289184533 SNUSat 2 1 43782U 18099AA 22111.46711985 .00003501 00000-0 31428-3 0 9999 2 43782 97.6246 179.7426 0014254 93.6658 266.6193 14.96288100184510 SnugLite 1 43784U 18099AC 22111.44536073 .00002669 00000-0 23958-3 0 9995 2 43784 97.6203 179.3739 0016046 100.3109 259.9922 14.96465044184537 ITASat 1 1 43786U 18099AE 22111.47978929 .00003173 00000-0 28508-3 0 9997 2 43786 97.6274 180.1958 0016770 99.3213 260.9905 14.96294307184532 EAGLET 1 1 43790U 18099AJ 22111.18200858 .00001874 00000-0 16960-3 0 9994 2 43790 97.6264 180.4262 0014472 103.5933 256.6902 14.96514477184229 ESEO 1 43792U 18099AL 22111.49804470 .00000597 00000-0 58043-4 0 9990 2 43792 97.6224 180.0309 0014640 99.4833 260.8044 14.96061829184316 CSIM 1 43793U 18099AM 22111.48397109 .00005585 00000-0 47870-3 0 9993 2 43793 97.6294 181.1332 0014715 95.6784 264.6117 14.97841882184351 Astrocast 0.1 1 43798U 18099AS 22111.46556380 .00005151 00000-0 45038-3 0 9997 2 43798 97.6264 181.0860 0013638 84.3578 275.9199 14.97110350184586 JO-97 1 43803U 18099AX 22111.44816770 .00003227 00000-0 28684-3 0 9994 2 43803 97.6227 179.9082 0016017 99.5437 260.7596 14.96702873184545 Suomi 100 1 43804U 18099AY 22111.46268974 .00003537 00000-0 31449-3 0 9991 2 43804 97.6223 179.8548 0016575 99.7281 260.5814 14.96629197184555 Al Farabi 2 1 43805U 18099AZ 22111.46940649 .00003862 00000-0 33890-3 0 9991 2 43805 97.6247 180.2853 0016594 99.6519 260.6583 14.97083556184571 CHOMPTT 1 43855U 18104G 22111.43291743 .00010688 00000-0 40673-3 0 9995 2 43855 85.0332 89.1332 0019024 89.8362 270.5062 15.26435834186026 ISAT 1 43879U 18111D 22111.54561177 .00003902 00000-0 33840-3 0 9991 2 43879 97.6681 18.1892 0013913 144.8370 215.3773 14.97577316181157 UWE-4 1 43880U 18111E 22111.48857541 .00004073 00000-0 35140-3 0 9994 2 43880 97.6716 18.7974 0013247 143.9894 216.2223 14.97765074181178 Sparrow 1 43881U 18111F 22111.44412546 .00003041 00000-0 26282-3 0 9994 2 43881 97.6736 18.9611 0012878 141.5702 218.6440 14.97885772181177 Lume 1 1 43908U 18111AJ 22111.47276361 .00011333 00000-0 40130-3 0 9991 2 43908 97.1981 1.0967 0016953 277.8934 82.0382 15.29147431184685 FO-98 1 43933U 19003B 22111.40147570 .00945731 00000-0 54834-2 0 9995 2 43933 97.1312 149.8778 0004706 235.7635 124.3185 15.75968828181394 FO-99 1 43937U 19003F 22111.07217382 .00012103 00000-0 42727-3 0 9998 2 43937 97.1368 146.6953 0020823 4.5779 355.5648 15.29157165181203 MYSat 1 1 44045U 18092F 22111.10174330 .00042558 00000-0 75959-3 0 9995 2 44045 51.6349 357.8179 0008417 234.9884 125.0315 15.49592713178969 AstroCast 0.2 1 44083U 19018F 22111.45134430 .00007440 00000-0 29505-3 0 9998 2 44083 97.3274 171.4449 0010678 336.8357 23.2399 15.25615290169796 AISTechSat 3 1 44103U 19018AB 22111.41301431 .00008228 00000-0 31773-3 0 9999 2 44103 97.3136 171.8154 0011497 344.5420 15.5466 15.26461222169941 AISat 1 1 44104U 19018AC 22111.32374036 .00007796 00000-0 22578-3 0 9993 2 44104 97.3957 194.2779 0052447 339.2645 20.6469 15.34468225170834 Prox-1 1 44339U 19036A 22111.53444059 .00003971 00000-0 86256-3 0 9993 2 44339 23.9994 192.7057 0010548 316.4380 43.5279 14.54646725150050 Oculus-ASR 1 44348U 19036K 22111.57089911 .00053543 -52650-5 56140-3 0 9992 2 44348 28.5033 222.8042 0264854 36.3553 325.4729 15.29827281155806 Armadillo 1 44352U 19036P 22111.49426776 .00133740 -19119-5 96983-3 0 9992 2 44352 28.5220 163.2914 0185877 130.2064 231.4965 15.52248561156345 NO-104 1 44354U 19036R 22111.48276963 .00059840 -50552-5 60286-3 0 9995 2 44354 28.5255 211.0804 0256333 52.3094 310.0460 15.32354431155916 NO-103 1 44355U 19036S 22110.24609159 .09797144 -77191-5 93620-3 0 9997 2 44355 28.5075 82.7172 0016307 255.7935 104.0877 16.36779689157079 Move-IIb 1 44398U 19038N 22111.59890333 .00012717 00000-0 64093-3 0 9999 2 44398 97.6237 80.5074 0021145 331.0468 28.9586 15.17104683154415 SONATE 1 44400U 19038Q 22111.56515661 .00005804 00000-0 32120-3 0 9993 2 44400 97.6337 79.8587 0023088 333.9762 26.0303 15.14017926154322 BeeSat 9 1 44412U 19038AC 22111.43716257 .00010754 00000-0 56355-3 0 9992 2 44412 97.6320 80.3679 0019758 337.8305 22.2071 15.15801371154057 JAISAT-1 1 44419U 19038F 22111.37477851 .00010628 00000-0 54984-3 0 9992 2 44419 97.6323 81.0979 0018599 335.7206 24.3148 15.16278167154406 LightSail-2 1 44420U 19036AC 22111.52119666 .00069945 00000-0 10783-1 0 9999 2 44420 24.0025 143.5408 0016189 49.2444 310.9454 14.71868341148660 Taurus 1 1 44530U 19059C 22111.57897569 .00002211 00000-0 62240-3 0 9996 2 44530 98.5426 209.5659 0011949 291.1571 68.8345 14.46785604137626 Duchifat 3 1 44854U 19089C 22111.29247430 .00003823 00000-0 30287-3 0 9999 2 44854 36.9654 79.1033 0006563 118.0669 242.0735 15.00599844129341 OPS-SAT 1 44878U 19092F 22111.49780284 .00010837 00000-0 52047-3 0 9991 2 44878 97.4809 295.9792 0013209 173.6710 186.4694 15.18946550129546 TO-108 1 44881U 19093C 22111.51434436 .00000606 00000-0 83593-4 0 9998 2 44881 97.8940 191.5390 0015425 17.2131 342.9603 14.81646845126344 FloripaSat 1 1 44885U 19093G 22111.46676034 .00001977 00000-0 25006-3 0 9994 2 44885 97.8973 192.6290 0014798 24.2641 335.9275 14.82888245126408 RS-44 1 44909U 19096E 22111.43138949 .00000016 00000-0 11405-4 0 9991 2 44909 82.5180 268.1573 0218378 93.0904 269.5207 12.79713128108212 Phoenix 1 45258U 98067RB 22111.54709858 .00169231 00000-0 84716-3 0 9998 2 45258 51.6319 211.7253 0009213 335.1829 24.8728 15.80704789123408 BY70-2 1 45857U 20042B 22111.54417059 .00006667 00000-0 91012-3 0 9990 2 45857 97.9560 188.9631 0008813 301.3116 58.7217 14.78919082 97047 UPMSat 2 1 46276U 20061E 22111.48381878 .00004924 00000-0 24775-3 0 9995 2 46276 97.3945 183.6166 0002241 57.2774 302.8676 15.17670104 90234 AmicalSat 1 46287U 20061R 22111.44688523 .00005826 00000-0 34284-3 0 9998 2 46287 97.4493 182.5634 0004243 109.9578 250.2110 15.12008758 89854 SALSAT 1 46495U 20068K 22111.55927393 .00002670 00000-0 19604-3 0 9992 2 46495 97.7264 52.8711 0018732 108.0573 252.2695 15.04198045 85634 BY70-3 1 46839U 20079N 22111.48929551 .00020468 00000-0 52588-3 0 9999 2 46839 97.2022 184.4248 0007037 168.0175 317.6347 15.39295876 81476 SPOC 1 46921U 98067RR 22111.58804008 .00151413 00000-0 92252-3 0 9990 2 46921 51.6322 224.8911 0005127 319.3049 40.7567 15.76434583 82986 Neutron-1 1 46923U 98067RT 22111.31122363 .00145051 00000-0 89456-3 0 9993 2 46923 51.6327 226.8050 0005165 315.5573 44.5012 15.76179610 82963 CAPE 3 1 47309U 21002A 22111.47637183 .00011724 00000-0 49556-3 0 9991 2 47309 60.6843 218.6959 0015388 260.8025 99.1322 15.23568276 69769 AO-109 1 47311U 21002C 22111.55098756 .00010675 00000-0 44408-3 0 9995 2 47311 60.6863 216.2877 0011161 252.8717 107.1148 15.24237876 69789 MiTEE 1 1 47314U 21002F 22111.50328669 .00020721 00000-0 75935-3 0 9994 2 47314 60.6831 211.3644 0011670 233.5716 126.4299 15.28000316 69888 ExoCube 2 1 47319U 21002L 22111.46810779 .00009795 00000-0 41342-3 0 9995 2 47319 60.6844 217.5292 0012606 258.4169 101.5503 15.23815140 69721 UVSQ-SAT 1 47438U 21006AB 22111.42482561 .00007129 00000-0 38539-3 0 9994 2 47438 97.4424 171.6201 0013814 112.1852 248.0847 15.14902553 68645 YUSAT 1 1 47439U 21006AC 22111.40879891 .00008085 00000-0 43308-3 0 9991 2 47439 97.4428 171.6632 0013587 112.7069 247.5601 15.15189946 68647 SOMP 2b 1 47445U 21006AJ 22111.21401807 .00006406 00000-0 34926-3 0 9996 2 47445 97.4395 171.1258 0013463 116.2894 243.9723 15.14644869 68604 IDEASSat 1 47458U 21006AX 22111.38797611 .00007054 00000-0 38611-3 0 9994 2 47458 97.4483 171.7394 0012525 114.2404 246.0138 15.14478776 68624 RSP-01 1 47925U 98067SB 22111.49771011 .00191319 00000-0 11521-2 0 9990 2 47925 51.6341 234.8049 0005824 320.0242 40.0329 15.76568811 62814 TAUSAT-1 1 47926U 98067SC 22111.48816059 .00560031 13682-3 15243-2 0 9991 2 47926 51.6214 227.1250 0011224 331.9442 28.0959 15.93464063 62905 Tsuru 1 47927U 98067SD 22111.50544673 .00139194 00000-0 10191-2 0 9991 2 47927 51.6341 237.1072 0004566 319.0933 40.9722 15.72226776 62784 Maya-2 1 47929U 98067SF 22111.56790669 .00138084 00000-0 10166-2 0 9996 2 47929 51.6341 236.7738 0004548 320.6375 39.4293 15.72099673 62755 GuaraniSat-1 1 47931U 98067SH 22111.49222124 .00136784 00000-0 99884-3 0 9997 2 47931 51.6358 237.0373 0004563 320.8207 39.2461 15.72297070 62787 CubeSX-Sirius-HSE 1 47951U 21022V 22111.54461897 .00005026 00000-0 33881-3 0 9993 2 47951 97.5361 12.2629 0020835 345.4227 137.4020 15.06929795 59426 CubeSX-HSE 1 47952U 21022W 22111.53397169 .00004771 00000-0 32141-3 0 9997 2 47952 97.5367 12.2683 0020979 345.3520 137.3146 15.06981746 59429 KSU-Cubesat 1 47954U 21022Y 22111.41727732 .00005672 00000-0 37953-3 0 9996 2 47954 97.5349 12.2325 0020457 344.9698 15.0919 15.07159925 59131 GRBAlpha 1 47959U 21022AD 22111.53235132 .00004788 00000-0 32242-3 0 9995 2 47959 97.5370 12.2980 0020762 346.0023 133.7897 15.06998780 58244 Orbicraft-Zorkiy 1 47960U 21022AE 22111.57389388 .00004450 00000-0 29904-3 0 9991 2 47960 97.5376 12.4482 0020779 345.9549 109.3845 15.07108437 58942 STECCO 1 47962U 21022AG 22111.53338053 .00007485 00000-0 47884-3 0 9990 2 47962 97.5342 12.9443 0015318 341.9733 140.7192 15.08784978 58285 DO-111 1 47963U 21022AH 22111.51940010 .00019840 00000-0 11697-2 0 9991 2 47963 97.5367 13.6052 0016597 337.3061 22.7433 15.11490592 58344 MO-110 1 47964U 21022AJ 22111.43623442 .00007948 00000-0 50297-3 0 9996 2 47964 97.5348 13.0610 0018001 337.9336 22.1116 15.09127889 58289 FEES 1 48082U 21022AL 22111.51404609 .00011777 00000-0 74000-3 0 9992 2 48082 97.5359 13.0125 0014078 336.5274 23.5311 15.09324591 57998 RamSat 1 48850U 98067SL 22111.50466992 .00066729 00000-0 73386-3 0 9993 2 48850 51.6387 246.8500 0003965 251.6056 108.4507 15.62528207 48409 TUBIN 1 48900U 21059X 22111.53082247 .00003811 00000-0 21710-3 0 9993 2 48900 97.5440 241.3385 0008992 304.8127 188.3226 15.13383646 45303 IT-SPINS 1 49017U 21013G 22110.56233009 .00009897 00000-0 39938-3 0 9990 2 49017 51.6017 316.5166 0008669 226.4400 133.5859 15.25368642 44945 LEDSAT 1 49069U 21073D 22111.46794605 .00005094 00000-0 33055-3 0 9996 2 49069 97.5270 185.4968 0028875 128.2158 232.1676 15.08167355 37242 CUTE 1 49263U 21088D 22111.46809768 .00005335 00000-0 40404-3 0 9999 2 49263 97.5925 180.5326 0019794 254.7960 105.1076 15.02554824 30864 Binar-1 1 49272U 98067SR 22110.79380588 .00066260 00000-0 76055-3 0 9994 2 49272 51.6381 254.0813 0000922 67.6297 292.4794 15.61433177 30630 Maya-3 1 49273U 98067SS 22111.55611519 .00108020 00000-0 10601-2 0 9996 2 49273 51.6370 248.6728 0001721 339.0158 21.0766 15.65220201 30779 Maya-4 1 49274U 98067ST 22110.80047675 .00095864 00000-0 95656-3 0 9995 2 49274 51.6368 252.6234 0001435 334.5447 25.5478 15.64856265 30657 CUAVA-1 1 49275U 98067SU 22111.54794358 .00080344 00000-0 85209-3 0 9995 2 49275 51.6393 249.2529 0000936 145.7896 264.1552 15.63386692 30712 TeikyoSat 4 1 49396U 21102B 22111.47672371 .00000612 00000-0 52988-4 0 9996 2 49396 97.5360 171.3362 0019815 96.3286 264.0195 15.00493244 24504 Z-Sat 1 49399U 21102E 22111.48869495 .00001862 00000-0 14436-3 0 9998 2 49399 97.5449 171.8267 0025758 67.4707 292.9241 15.02345860 24531 KOSEN 1 1 49402U 21102H 22111.38978573 .00003256 00000-0 24314-3 0 9995 2 49402 97.5331 171.8123 0023129 56.4042 303.9386 15.03304735 24537 HO-113 1 50466U 21131B 22111.55227774 .00000209 00000-0 82956-4 0 9990 2 50466 98.5820 188.8301 0003539 331.0856 29.0135 14.38468677 16731 Tevel 1 50999U 22002R 22111.48132569 .00008638 00000-0 47956-3 0 9992 2 50999 97.4837 179.4947 0010191 251.9055 108.1067 15.13930845 14807 Grizu-263a 1 51025U 22002AT 22111.11221735 .00012975 00000-0 69615-3 0 9992 2 51025 97.5016 179.4448 0012043 257.6703 102.3182 15.15020222 14754 NO-116 1 51031U 22002AZ 22111.45181867 .00010921 00000-0 59384-3 0 9998 2 51031 97.4969 179.7004 0012161 257.6429 102.3442 15.14587173 14801 IRIS-A 1 51044U 22002BN 22111.46682274 .00005580 00000-0 32058-3 0 9995 2 51044 97.4856 179.3849 0007948 258.1056 101.9284 15.12877807 14793 DELFI-PQ 1 51074U 22002CU 22111.43240662 .00011102 00000-0 57971-3 0 9994 2 51074 97.5094 180.0414 0012597 292.0069 67.9825 15.16018129 14818 SO-115 1 51080U 22002DA 22110.91756795 .00007781 00000-0 41308-3 0 9997 2 51080 97.5103 179.5172 0012290 294.7400 65.2553 15.15540191 14736 SO-114 1 51081U 22002DB 22110.98419991 .00007690 00000-0 40827-3 0 9993 2 51081 97.5101 179.5716 0012557 294.2335 65.7585 15.15541398 14748 GASPACS 1 51439U 98067TB 22111.52998356 .00287347 00000-0 22635-2 0 9997 2 51439 51.6353 252.2338 0011643 323.6527 36.3678 15.69939399 13285 /EX